{"data":{"norad_id":60242,"intl_designator":"2024-128H","name":"CURIUM ONE","alt_names":[],"object_type":"PAYLOAD","status":"ACTIVE","operator":null,"country":"GER","launch_date":"2024-07-09","launch_site_code":"FRGUI","launch_vehicle":null,"mission":null,"orbit_class":"UNKNOWN","rcs_meters":null,"size_class":null,"mass_kg":null,"dimensions":null,"purposes":[],"wikipedia_slug":null,"has_3d_model":false,"image_url":null,"decayed_at":null,"tle_current":{"epoch":"2026-05-24T18:20:23.467200Z","epoch_age_seconds":89396,"freshness":"FRESH","line1":"1 60242U 24128H   26144.76416050  .00008163  00000+0  47373-3 0  9991","line2":"2 60242  61.9791 288.7115 0043477 125.9418 234.5723 15.12086397102917","mean_motion":15.12086397,"eccentricity":0.0043477,"inclination_deg":61.9791,"raan_deg":288.7115,"arg_perigee_deg":125.9418,"mean_anomaly_deg":234.5723,"bstar":0.00047373,"rev_number":10291,"period_min":95.232653561131,"perigee_km":499.80440599541,"apogee_km":559.87201363484,"semimajor_km":6907.9752098151,"source":"CELESTRAK","updated_at":"2026-05-25T13:38:01.930930Z"}}}